ZHONGXING-9

Last updated on Tue Sep 22 2026 00:03:11 GMT+0000 (Coordinated Universal Time)

1 33051U 08028A 26264.67993845 -.00000253 00000+0 00000+0 0 9990 2 33051 1.0077 83.8997 0006533 135.8663 117.9712 1.00273882 67004
UTC large
Height (km)
Speed (km/s)
/
Latitude / Longitude
Inclination (degrees)
Orbital Period (minutes)
Azimuth
Elevation
Range (km)
Doppler Factor

Next 0 passes for location: London (51.5072 / 0.1276)

No passes found over London.
ZHONGXING-9